TimeEST,TemperatureF,Dew PointF,Humidity,Sea Level PressureIn,VisibilityMPH,Wind Direction,Wind SpeedMPH,Gust SpeedMPH,PrecipitationIn,Events,Conditions,WindDirDegrees,DateUTC
12:52 AM,46.0,27.0,47,30.17,10.0,NW,11.5,18.4,N/A,,Overcast,310,2013-01-07 05:52:00
1:52 AM,45.0,27.0,49,30.19,10.0,NW,8.1,-,N/A,,Overcast,320,2013-01-07 06:52:00
2:52 AM,44.6,28.4,53,30.21,10.0,North,6.9,-,N/A,,Overcast,350,2013-01-07 07:52:00
3:52 AM,45.0,28.0,52,30.24,10.0,NNW,11.5,18.4,N/A,,Overcast,330,2013-01-07 08:52:00
4:52 AM,45.0,26.1,48,30.26,10.0,NW,11.5,19.6,N/A,,Overcast,310,2013-01-07 09:52:00
5:52 AM,44.1,26.1,49,30.29,10.0,NNW,10.4,-,N/A,,Overcast,340,2013-01-07 10:52:00
6:52 AM,44.1,24.1,45,30.32,10.0,NNW,13.8,20.7,N/A,,Mostly Cloudy,340,2013-01-07 11:52:00
7:52 AM,43.0,25.0,49,30.35,10.0,NW,9.2,-,N/A,,Mostly Cloudy,320,2013-01-07 12:52:00
8:52 AM,44.1,25.0,47,30.40,10.0,NW,12.7,18.4,N/A,,Mostly Cloudy,310,2013-01-07 13:52:00
9:52 AM,44.1,25.0,47,30.44,10.0,NW,11.5,-,N/A,,Mostly Cloudy,320,2013-01-07 14:52:00
10:52 AM,46.0,25.0,44,30.45,10.0,NNW,9.2,-,N/A,,Mostly Cloudy,330,2013-01-07 15:52:00
11:52 AM,46.9,24.1,41,30.43,10.0,North,11.5,-,N/A,,Mostly Cloudy,360,2013-01-07 16:52:00
12:52 PM,45.0,23.0,42,30.42,10.0,NNW,9.2,-,N/A,,Scattered Clouds,340,2013-01-07 17:52:00
1:52 PM,46.9,23.0,39,30.41,10.0,North,5.8,-,N/A,,Scattered Clouds,360,2013-01-07 18:52:00
2:52 PM,48.0,24.1,39,30.42,10.0,North,9.2,-,N/A,,Partly Cloudy,350,2013-01-07 19:52:00
3:52 PM,46.9,23.0,39,30.43,10.0,West,4.6,-,N/A,,Partly Cloudy,280,2013-01-07 20:52:00
4:52 PM,44.1,23.0,43,30.43,10.0,NW,4.6,-,N/A,,Partly Cloudy,310,2013-01-07 21:52:00
5:52 PM,43.0,23.0,45,30.45,10.0,WNW,5.8,-,N/A,,Clear,290,2013-01-07 22:52:00
6:52 PM,42.1,23.0,47,30.45,10.0,WNW,6.9,-,N/A,,Clear,290,2013-01-07 23:52:00
7:52 PM,41.0,23.0,49,30.45,10.0,Calm,Calm,-,N/A,,Clear,0,2013-01-08 00:52:00
8:52 PM,37.0,28.0,70,30.45,10.0,South,3.5,-,N/A,,Clear,190,2013-01-08 01:52:00
9:52 PM,36.0,27.0,70,30.44,10.0,SSE,3.5,-,N/A,,Clear,150,2013-01-08 02:52:00
10:52 PM,35.1,26.1,70,30.44,10.0,Calm,Calm,-,N/A,,Clear,0,2013-01-08 03:52:00
11:52 PM,34.0,28.0,79,30.43,9.0,Calm,Calm,-,N/A,,Partly Cloudy,0,2013-01-08 04:52:00